Weather in Jinzhou

China     43°03′15″N   125°16′50″E
temp.,
°C
wind,
m/s
gust,
m/s
humid.,
%
clouds,
%
prec.,
mm/h
press.,
hPa
HPBL,
m
22 january, fri
fri2223:00−7wnw369898 0.2 1023139
02:00−11nw249798 0.3 1025109
05:00−11nnw3497100 0.1 1027120
08:00−15n2297100 0.1 102968
11:00−10nne347929 0.0 1030257
14:00−8nne357914 0.0 1027277
17:00−13ne23820 0.0 102821
20:00−14e22760 0.0 102820
23 january, sat
sat2323:00−14e22760 0.0 102820
02:00−14ese22800 0.0 102820
05:00−15ese34790 0.0 102743
08:00−14ese46860 0.0 1027128
11:00−7se46840 0.0 1026241
14:00−5se34860 0.0 1024252
17:00−9se23870 0.0 102521
20:00−10se23860 0.0 102621
24 january, sun
sun2423:00−10se23890 0.0 102724
02:00−10se22890 0.0 102821
05:00−10se23850 0.0 102721
08:00−9se23830 0.0 102925
11:00−2sse23790 0.0 1028193
14:00−1sw11800 0.0 1028274
17:00−5sse22860 0.0 102921
20:00−7se22840 0.0 103021
25 january, mon
mon2523:00−7se22840 0.0 103021
02:00−8se23870 0.0 103121
05:00−8se23860 0.0 102921
08:00−7se368617 0.0 102993
11:00−1sse578299 0.0 1026243
14:00+1sse4687100 0.0 1022223
17:00−2s3385100 0.0 102237
20:00−2s31097100 0.6 1021319
26 january, tue
tue2623:00−1wsw51498100 2.6 1020839
02:00−3wsw61390100 3.7 1021573
05:00−8wsw499233 0.0 1021205
08:00−9sw4108817 0.0 1023216
11:00−6w710740 0.0 1024883
14:00−7w69740 0.0 10231023
17:00−11wsw49840 0.0 1024179
20:00−13wsw410830 0.0 1026193